Valdosta Regional, GA

3:51 PM EDT on May 29, 2017 (GMT -0400)
Valdosta Regional

Weather History for KVLD - May, 2013

Change the Weather History Date:

Sunday, May 26, 2013

  Actual Average Record
Temperature  
Mean Temperature 73 °F 76 °F  
Max Temperature 91 °F 88 °F 99 °F (2012)
Min Temperature 55 °F 64 °F 51 °F (2005)
Cooling Degree Days 8 11  
Month to date cooling degree days 204 219  
Year to date cooling degree days 470 354  
Growing Degree Days 23 (Base 50)    
Moisture  
Dew Point 52 °F    
Average Humidity 55    
Maximum Humidity 86    
Minimum Humidity 23    
Precipitation  
Precipitation 0.00 in 0.10 in 1.61 in (2015)
Month to date precipitation T 1.80  
Year to date precipitation 14.54 18.27  
Sea Level Pressure  
Sea Level Pressure 30.22 in    
Wind  
Wind Speed 3 mph (ENE)    
Max Wind Speed 12 mph    
Max Gust Speed 16 mph    
Visibility 10 miles    
Events      
T = Trace of Precipitation, MM = Missing Value Source: NWS Daily Summary

Daily Weather History Graph

Daily Weather History Graph

Search for Another Location

Airport or City:

Trip Planner

Search our weather history database for the weather conditions in past years. The results will help you decide how hot, cold, wet, or windy it might be!

Date:

Astronomy

May. 26, 2013 Rise Set
Actual Time 6:32 AM EDT 8:28 PM EDT
Civil Twilight 6:05 AM EDT 8:55 PM EDT
Nautical Twilight 5:32 AM EDT 9:28 PM EDT
Astronomical Twilight 4:57 AM EDT 10:03 PM EDT
Moon 10:16 PM EDT (5/26) 7:59 AM EDT (5/26)
Length of Visible Light 14h 49m
Length of Day
13h 55m
Waning Gibbous, 97% of the Moon is Illuminated
May 26
Waning Gibbous
May 31
Last Quarter
Jun 8
New
Jun 16
First Quarter
Jun 23
Full

Hourly Weather History & Observations

Time (EDT) Temp. Heat Index Dew Point Humidity Pressure Visibility Wind Dir Wind Speed Gust Speed Precip Events Conditions
12:53 AM 66.0 °F - 55.0 °F 68% 30.23 in 10.0 mi Calm Calm - N/A   Clear
1:53 AM 61.0 °F - 54.0 °F 78% 30.21 in 10.0 mi Calm Calm - N/A   Clear
2:53 AM 61.0 °F - 54.0 °F 78% 30.19 in 10.0 mi Calm Calm - N/A   Clear
3:53 AM 59.0 °F - 53.1 °F 81% 30.20 in 10.0 mi Calm Calm - N/A   Clear
4:53 AM 57.0 °F - 52.0 °F 83% 30.21 in 7.0 mi Calm Calm - N/A   Clear
5:53 AM 57.0 °F - 52.0 °F 83% 30.22 in 10.0 mi Calm Calm - N/A   Clear
6:53 AM 55.9 °F - 51.1 °F 84% 30.26 in 3.0 mi Calm Calm - N/A   Haze
7:53 AM 64.9 °F - 57.9 °F 78% 30.26 in 10.0 mi Calm Calm - N/A   Clear
8:53 AM 73.0 °F - 57.0 °F 57% 30.27 in 10.0 mi South 5.8 mph - N/A   Clear
9:53 AM 78.1 °F - 53.1 °F 42% 30.28 in 10.0 mi South 6.9 mph - N/A   Clear
10:53 AM 81.0 °F - 50.0 °F 34% 30.28 in 10.0 mi Calm Calm - N/A   Clear
11:53 AM 84.0 °F - 50.0 °F 31% 30.28 in 10.0 mi Calm Calm - N/A   Clear
12:53 PM 87.1 °F - 50.0 °F 28% 30.26 in 10.0 mi Variable 4.6 mph - N/A   Clear
1:53 PM 89.1 °F - 48.9 °F 25% 30.24 in 10.0 mi NNE 5.8 mph - N/A   Clear
2:53 PM 90.0 °F - 46.9 °F 23% 30.22 in 10.0 mi East 4.6 mph - N/A   Clear
3:53 PM 90.0 °F - 46.9 °F 23% 30.20 in 10.0 mi NE 6.9 mph - N/A   Clear
4:53 PM 91.0 °F - 48.0 °F 23% 30.19 in 10.0 mi North 6.9 mph - N/A   Clear
5:53 PM 90.0 °F - 46.9 °F 23% 30.17 in 10.0 mi Calm Calm - N/A   Clear
6:53 PM 88.0 °F - 46.0 °F 23% 30.17 in 10.0 mi East 3.5 mph - N/A   Clear
7:53 PM 82.0 °F 81.2 °F 53.1 °F 37% 30.18 in 10.0 mi NNE 3.5 mph - N/A   Clear
8:53 PM 73.0 °F - 55.0 °F 53% 30.17 in 10.0 mi Calm Calm - N/A   Clear
9:53 PM 69.1 °F - 55.9 °F 63% 30.19 in 10.0 mi Calm Calm - N/A   Clear
10:53 PM 66.9 °F - 55.9 °F 68% 30.20 in 10.0 mi Calm Calm - N/A   Clear
11:53 PM 73.0 °F - 55.9 °F 55% 30.21 in 10.0 mi SSE 5.8 mph - N/A   Clear